{"data":{"norad_id":57823,"epoch":"2026-09-20T21:56:39.449472Z","epoch_age_seconds":98813,"freshness":"FRESH","line1":"1 57823U 23138R   26263.91434548 -.00000012  00000+0  90690-5 0  9991","line2":"2 57823  43.0010 106.2546 0001105 266.0114  94.0611 15.27581413169820","mean_motion":15.27581413,"eccentricity":0.0001105,"inclination_deg":43.001,"raan_deg":106.2546,"arg_perigee_deg":266.0114,"mean_anomaly_deg":94.0611,"bstar":9.069e-6,"rev_number":16982,"period_min":94.266661517699,"perigee_km":482.28670441651,"apogee_km":483.80302560867,"semimajor_km":6861.1818650126,"source":"CELESTRAK","updated_at":"2026-09-21T09:00:33.709703Z"}}